Time,TemperatureF,DewpointF,PressureIn,WindDirection,WindDirectionDegrees,WindSpeedMPH,WindSpeedGustMPH,Humidity,HourlyPrecipIn,Conditions,Clouds,dailyrainin,SolarRadiationWatts/m^2,SoftwareType,DateUTC
2013-04-06 08:26:00,-17.1,-41.2,29.47,South,180,0.0,9.2,27,0.00,CLR,,0.00,0.0,WeatherDisplay:10.37,2013-04-06 16:26:00,
2013-04-06 08:31:00,-15.9,-40.1,29.47,SSW,202,0.0,0.0,27,0.00,CLR,,0.00,0.0,WeatherDisplay:10.37,2013-04-06 16:31:00,
2013-04-06 08:36:00,-14.4,-38.8,29.47,South,180,0.0,0.0,27,0.00,CLR,,0.00,0.0,WeatherDisplay:10.37,2013-04-06 16:36:00,
2013-04-06 08:42:00,-12.5,-37.1,29.47,South,180,1.2,1.2,27,0.00,CLR,,0.00,0.0,WeatherDisplay:10.37,2013-04-06 16:42:00,
2013-04-06 08:50:00,-9.8,-34.7,29.47,SSW,202,0.0,1.2,27,0.00,CLR,FEW,0.00,0.0,WeatherDisplay:10.37,2013-04-06 16:50:00,
2013-04-06 08:55:00,-8.5,-33.6,29.47,SSE,158,0.0,0.0,27,0.00,CLR,FEW,0.00,0.0,WeatherDisplay:10.37,2013-04-06 16:55:00,
2013-04-06 09:00:00,-7.8,-33.0,29.47,South,180,0.0,1.2,27,0.00,CLR,FEW,0.00,0.0,WeatherDisplay:10.37,2013-04-06 17:00:00,
2013-04-06 09:05:00,-6.9,-32.2,29.47,SSW,202,0.0,0.0,27,0.00,CLR,FEW,0.00,0.0,WeatherDisplay:10.37,2013-04-06 17:05:00,
2013-04-06 09:10:00,-6.0,-31.4,29.44,East,90,0.0,0.0,27,0.00,CLR,FEW,0.00,0.0,WeatherDisplay:10.37,2013-04-06 17:10:00,
2013-04-06 09:15:00,-5.6,-31.1,29.44,East,90,0.0,0.0,27,0.00,CLR,FEW,0.00,0.0,WeatherDisplay:10.37,2013-04-06 17:15:00,
2013-04-06 09:20:00,-5.3,-30.7,29.44,WNW,292,0.9,1.6,27,0.00,CLR,FEW,0.00,0.0,WeatherDisplay:10.37,2013-04-06 17:20:00,
2013-04-06 09:25:00,-4.7,-30.3,29.44,WNW,292,1.6,2.3,27,0.00,CLR,FEW,0.00,0.0,WeatherDisplay:10.37,2013-04-06 17:25:00,
2013-04-06 09:30:00,-3.8,-29.5,29.44,SSW,202,1.4,2.3,27,0.00,CLR,FEW,0.00,0.0,WeatherDisplay:10.37,2013-04-06 17:30:00,
2013-04-06 09:35:00,-3.5,-29.2,29.44,WSW,248,1.4,1.4,27,0.00,CLR,FEW,0.00,0.0,WeatherDisplay:10.37,2013-04-06 17:35:00,
2013-04-06 09:40:00,-3.1,-28.9,29.44,WNW,292,0.0,0.0,27,0.00,CLR,FEW,0.00,0.0,WeatherDisplay:10.37,2013-04-06 17:40:00,
2013-04-06 09:45:00,-2.9,-28.7,29.44,North,0,0.9,1.6,27,0.00,CLR,FEW,0.00,0.0,WeatherDisplay:10.37,2013-04-06 17:45:00,
2013-04-06 09:50:00,-2.9,-28.7,29.44,North,0,0.9,1.2,27,0.00,CLR,FEW,0.00,0.0,WeatherDisplay:10.37,2013-04-06 17:50:00,
2013-04-06 09:55:00,-2.9,-28.7,29.44,North,0,0.9,1.6,27,0.00,CLR,FEW,0.00,0.0,WeatherDisplay:10.37,2013-04-06 17:55:00,
2013-04-06 10:00:00,-2.9,-28.7,29.44,North,0,0.9,1.6,27,0.00,CLR,FEW,0.00,0.0,WeatherDisplay:10.37,2013-04-06 18:00:00,
2013-04-06 10:05:00,-2.9,-28.7,29.44,North,0,0.9,1.2,27,0.00,CLR,FEW,0.00,0.0,WeatherDisplay:10.37,2013-04-06 18:05:00,
2013-04-06 10:10:00,-2.9,-28.7,29.44,North,0,0.9,1.2,27,0.00,CLR,FEW,0.00,0.0,WeatherDisplay:10.37,2013-04-06 18:10:00,
2013-04-06 11:24:00,-2.9,-28.7,29.44,North,0,0.0,1.2,27,0.00,CLR,FEW,0.00,0.0,WeatherDisplay:10.37,2013-04-06 19:24:00,
2013-04-06 11:29:00,4.8,-21.9,29.44,NNW,338,3.8,4.6,27,0.00,CLR,FEW,0.00,100.0,WeatherDisplay:10.37,2013-04-06 19:29:00,
2013-04-06 11:34:00,5.0,-21.8,29.44,North,0,2.2,2.3,27,0.00,CLR,FEW,0.00,100.0,WeatherDisplay:10.37,2013-04-06 19:34:00,
2013-04-06 11:39:00,4.8,-21.9,29.44,North,358,3.0,5.0,27,0.00,CLR,FEW,0.00,200.0,WeatherDisplay:10.37,2013-04-06 19:39:00,
2013-04-06 11:45:00,4.9,-21.8,29.44,NNE,18,5.0,5.0,27,0.00,CLR,FEW,0.00,200.0,WeatherDisplay:10.37,2013-04-06 19:45:00,
2013-04-06 11:50:00,5.5,-21.3,29.44,NNE,22,4.0,4.0,27,0.00,CLR,FEW,0.00,200.0,WeatherDisplay:10.37,2013-04-06 19:50:00,
2013-04-06 11:55:00,5.4,-21.4,29.44,NNW,338,4.9,4.9,27,0.00,CLR,FEW,0.00,200.0,WeatherDisplay:10.37,2013-04-06 19:55:00,
2013-04-06 12:00:00,6.3,-20.7,29.44,NNE,22,3.3,3.3,27,0.00,CLR,FEW,0.00,200.0,WeatherDisplay:10.37,2013-04-06 20:00:00,
2013-04-06 12:05:00,6.1,-20.8,29.44,NNW,338,4.3,4.6,27,0.00,CLR,FEW,0.00,200.0,WeatherDisplay:10.37,2013-04-06 20:05:00,
2013-04-06 12:10:00,6.1,-20.8,29.44,North,0,2.0,2.0,27,0.00,CLR,FEW,0.00,200.0,WeatherDisplay:10.37,2013-04-06 20:10:00,
2013-04-06 12:15:00,6.8,-20.2,29.44,NE,45,6.0,6.0,27,0.00,CLR,FEW,0.00,200.0,WeatherDisplay:10.37,2013-04-06 20:15:00,
2013-04-06 12:20:00,6.4,-20.5,29.44,North,0,3.6,4.6,27,0.00,CLR,FEW,0.00,200.0,WeatherDisplay:10.37,2013-04-06 20:20:00,
2013-04-06 12:25:00,6.4,-20.5,29.44,NNE,22,5.9,5.9,27,0.00,CLR,FEW,0.00,200.0,WeatherDisplay:10.37,2013-04-06 20:25:00,
2013-04-06 12:30:00,6.3,-20.7,29.44,NNE,22,4.7,6.9,27,0.00,CLR,FEW,0.00,200.0,WeatherDisplay:10.37,2013-04-06 20:30:00,
2013-04-06 12:35:00,6.8,-20.2,29.44,NNE,22,2.6,3.5,27,0.00,CLR,FEW,0.00,200.0,WeatherDisplay:10.37,2013-04-06 20:35:00,
2013-04-06 12:40:00,6.6,-20.3,29.44,NNW,338,2.9,4.9,27,0.00,CLR,FEW,0.00,200.0,WeatherDisplay:10.37,2013-04-06 20:40:00,
2013-04-06 12:45:00,7.2,-19.9,29.44,North,0,3.6,6.9,27,0.00,CLR,FEW,0.00,200.0,WeatherDisplay:10.37,2013-04-06 20:45:00,
2013-04-06 12:50:00,7.7,-19.4,29.44,NE,45,4.0,4.6,27,0.00,CLR,FEW,0.00,200.0,WeatherDisplay:10.37,2013-04-06 20:50:00,
2013-04-06 12:55:00,7.7,-19.4,29.44,North,0,5.9,5.9,27,0.00,CLR,FEW,0.00,200.0,WeatherDisplay:10.37,2013-04-06 20:55:00,
2013-04-06 13:00:00,7.9,-19.2,29.44,North,0,4.9,5.8,27,0.00,CLR,FEW,0.00,200.0,WeatherDisplay:10.37,2013-04-06 21:00:00,
2013-04-06 13:05:00,8.4,-18.8,29.44,NNE,22,6.4,8.1,27,0.00,CLR,FEW,0.00,200.0,WeatherDisplay:10.37,2013-04-06 21:05:00,
2013-04-06 13:10:00,8.1,-19.1,29.44,NNW,338,3.3,4.6,27,0.00,CLR,FEW,0.00,200.0,WeatherDisplay:10.37,2013-04-06 21:10:00,
2013-04-06 13:15:00,8.2,-18.9,29.44,North,0,2.2,5.8,27,0.00,CLR,FEW,0.00,200.0,WeatherDisplay:10.37,2013-04-06 21:15:00,
2013-04-06 13:20:00,8.6,-18.6,29.44,North,0,5.9,5.9,27,0.00,CLR,FEW,0.00,200.0,WeatherDisplay:10.37,2013-04-06 21:20:00,
2013-04-06 13:25:00,8.8,-18.5,29.44,NNE,22,3.8,4.6,27,0.00,CLR,FEW,0.00,200.0,WeatherDisplay:10.37,2013-04-06 21:25:00,
2013-04-06 13:30:00,9.1,-18.1,29.44,North,0,5.4,7.4,27,0.00,CLR,FEW,0.00,200.0,WeatherDisplay:10.37,2013-04-06 21:30:00,
2013-04-06 13:35:00,9.1,-18.1,29.44,NNW,338,5.9,8.1,27,0.00,CLR,FEW,0.00,200.0,WeatherDisplay:10.37,2013-04-06 21:35:00,
2013-04-06 13:41:00,9.5,-17.8,29.44,NNW,338,7.4,8.1,27,0.00,CLR,FEW,0.00,200.0,WeatherDisplay:10.37,2013-04-06 21:41:00,
2013-04-06 13:46:00,8.6,-18.6,29.44,NNE,22,4.5,6.9,27,0.00,CLR,FEW,0.00,200.0,WeatherDisplay:10.37,2013-04-06 21:46:00,
2013-04-06 13:51:00,8.8,-18.5,29.44,NNW,338,4.0,4.0,27,0.00,CLR,FEW,0.00,200.0,WeatherDisplay:10.37,2013-04-06 21:51:00,
2013-04-06 13:57:00,8.8,-18.5,29.44,NNE,22,3.8,6.9,27,0.00,CLR,FEW,0.00,200.0,WeatherDisplay:10.37,2013-04-06 21:57:00,
2013-04-06 14:02:00,9.1,-18.1,29.44,North,0,3.3,5.8,27,0.00,CLR,FEW,0.00,200.0,WeatherDisplay:10.37,2013-04-06 22:02:00,
2013-04-06 14:07:00,9.3,-18.0,29.44,NE,45,3.8,4.6,27,0.00,CLR,FEW,0.00,200.0,WeatherDisplay:10.37,2013-04-06 22:07:00,
2013-04-06 14:12:00,10.4,-17.0,29.44,NE,45,3.8,3.8,27,0.00,CLR,FEW,0.00,200.0,WeatherDisplay:10.37,2013-04-06 22:12:00,
2013-04-06 14:17:00,10.4,-17.0,29.44,NNE,22,6.2,8.1,27,0.00,CLR,FEW,0.00,200.0,WeatherDisplay:10.37,2013-04-06 22:17:00,
2013-04-06 14:22:00,10.2,-17.2,29.44,NNW,338,6.2,6.2,27,0.00,CLR,FEW,0.00,200.0,WeatherDisplay:10.37,2013-04-06 22:22:00,
2013-04-06 14:27:00,10.8,-16.7,29.44,NNE,22,3.8,4.6,27,0.00,CLR,FEW,0.00,200.0,WeatherDisplay:10.37,2013-04-06 22:27:00,
2013-04-06 14:32:00,11.3,-16.3,29.44,North,0,5.9,6.9,27,0.00,CLR,FEW,0.00,100.0,WeatherDisplay:10.37,2013-04-06 22:32:00,
2013-04-06 14:38:00,12.0,-15.6,29.44,North,0,5.4,5.4,27,0.00,CLR,FEW,0.00,100.0,WeatherDisplay:10.37,2013-04-06 22:38:00,
2013-04-06 14:43:00,11.8,-15.8,29.44,North,0,5.4,8.1,27,0.00,CLR,FEW,0.00,100.0,WeatherDisplay:10.37,2013-04-06 22:43:00,
2013-04-06 14:48:00,12.0,-15.6,29.47,NE,45,7.1,7.1,27,0.00,CLR,FEW,0.00,100.0,WeatherDisplay:10.37,2013-04-06 22:48:00,
2013-04-06 14:53:00,11.1,-16.4,29.47,NE,45,6.2,6.9,27,0.00,CLR,FEW,0.00,100.0,WeatherDisplay:10.37,2013-04-06 22:53:00,
2013-04-06 14:58:00,11.8,-15.8,29.47,NNW,338,6.2,6.2,27,0.00,CLR,FEW,0.00,100.0,WeatherDisplay:10.37,2013-04-06 22:58:00,
2013-04-06 15:03:00,12.0,-15.6,29.44,NNE,22,6.0,6.0,27,0.00,CLR,FEW,0.00,100.0,WeatherDisplay:10.37,2013-04-06 23:03:00,
2013-04-06 15:08:00,12.4,-15.3,29.44,North,0,4.7,5.8,27,0.00,CLR,FEW,0.00,100.0,WeatherDisplay:10.37,2013-04-06 23:08:00,
2013-04-06 15:13:00,12.2,-15.5,29.44,North,0,4.7,4.7,27,0.00,CLR,FEW,0.00,100.0,WeatherDisplay:10.37,2013-04-06 23:13:00,
2013-04-06 15:18:00,12.2,-15.5,29.47,North,0,4.7,4.7,27,0.00,CLR,FEW,0.00,100.0,WeatherDisplay:10.37,2013-04-06 23:18:00,
2013-04-06 15:23:00,12.2,-15.5,29.47,North,0,4.7,4.7,27,0.00,CLR,FEW,0.00,100.0,WeatherDisplay:10.37,2013-04-06 23:23:00,
2013-04-06 15:28:00,11.8,-15.8,29.47,NNE,22,8.7,8.7,27,0.00,CLR,FEW,0.00,100.0,WeatherDisplay:10.37,2013-04-06 23:28:00,
2013-04-06 15:34:00,12.0,-15.6,29.47,North,0,7.4,8.1,27,0.00,CLR,FEW,0.00,100.0,WeatherDisplay:10.37,2013-04-06 23:34:00,
2013-04-06 15:39:00,11.8,-15.8,29.47,NNW,338,3.1,3.5,27,0.00,CLR,FEW,0.00,100.0,WeatherDisplay:10.37,2013-04-06 23:39:00,
2013-04-06 15:44:00,11.7,-15.9,29.47,NE,45,5.6,5.6,27,0.00,CLR,FEW,0.00,100.0,WeatherDisplay:10.37,2013-04-06 23:44:00,
2013-04-06 15:49:00,11.1,-16.4,29.47,NE,45,6.4,6.4,27,0.00,CLR,FEW,0.00,100.0,WeatherDisplay:10.37,2013-04-06 23:49:00,
2013-04-06 15:54:00,11.2,-16.4,29.47,NE,44,7.0,7.0,27,0.00,CLR,FEW,0.00,100.0,WeatherDisplay:10.37,2013-04-06 23:54:00,
2013-04-06 15:59:00,11.1,-16.4,29.47,NE,45,6.4,6.4,27,0.00,CLR,FEW,0.00,0.0,WeatherDisplay:10.37,2013-04-06 23:59:00,
2013-04-06 16:04:00,11.7,-15.9,29.47,NNW,338,2.9,5.8,27,0.00,CLR,FEW,0.00,0.0,WeatherDisplay:10.37,2013-04-07 00:04:00,
2013-04-06 16:09:00,12.2,-15.5,29.47,NNE,22,7.4,7.4,27,0.00,CLR,FEW,0.00,0.0,WeatherDisplay:10.37,2013-04-07 00:09:00,
2013-04-06 16:14:00,11.7,-15.9,29.47,NNE,22,6.9,6.9,27,0.00,CLR,FEW,0.00,0.0,WeatherDisplay:10.37,2013-04-07 00:14:00,
2013-04-06 16:19:00,12.0,-15.6,29.47,NNW,338,5.4,5.4,27,0.00,CLR,FEW,0.00,0.0,WeatherDisplay:10.37,2013-04-07 00:19:00,
2013-04-06 16:24:00,12.0,-15.6,29.47,NNW,338,6.9,6.9,27,0.00,CLR,FEW,0.00,0.0,WeatherDisplay:10.37,2013-04-07 00:24:00,
2013-04-06 16:29:00,11.8,-15.8,29.47,ENE,68,4.3,8.1,27,0.00,CLR,FEW,0.00,0.0,WeatherDisplay:10.37,2013-04-07 00:29:00,
2013-04-06 16:35:00,12.0,-15.6,29.47,ENE,68,6.0,8.1,27,0.00,CLR,FEW,0.00,0.0,WeatherDisplay:10.37,2013-04-07 00:35:00,
2013-04-06 16:40:00,11.5,-16.1,29.47,ENE,68,6.0,6.9,27,0.00,CLR,FEW,0.00,0.0,WeatherDisplay:10.37,2013-04-07 00:40:00,
2013-04-06 16:45:00,11.7,-15.9,29.47,NNW,338,4.7,4.7,27,0.00,CLR,FEW,0.00,0.0,WeatherDisplay:10.37,2013-04-07 00:45:00,
2013-04-06 16:50:00,11.7,-15.9,29.47,NNW,338,4.7,4.7,27,0.00,CLR,FEW,0.00,0.0,WeatherDisplay:10.37,2013-04-07 00:50:00,
2013-04-06 16:55:00,11.3,-16.3,29.47,NNE,22,6.0,6.0,27,0.00,CLR,FEW,0.00,0.0,WeatherDisplay:10.37,2013-04-07 00:55:00,
2013-04-06 17:00:00,11.3,-16.3,29.47,ENE,68,5.9,5.9,27,0.00,CLR,FEW,0.00,0.0,WeatherDisplay:10.37,2013-04-07 01:00:00,
2013-04-06 17:05:00,11.8,-15.8,29.47,ENE,68,5.9,5.9,27,0.00,CLR,FEW,0.00,0.0,WeatherDisplay:10.37,2013-04-07 01:05:00,
2013-04-06 17:10:00,12.0,-15.6,29.47,NNE,22,2.9,4.6,27,0.00,CLR,FEW,0.00,0.0,WeatherDisplay:10.37,2013-04-07 01:10:00,
2013-04-06 17:15:00,11.8,-15.8,29.47,NE,45,7.6,7.6,27,0.00,CLR,FEW,0.00,0.0,WeatherDisplay:10.37,2013-04-07 01:15:00,
2013-04-06 17:20:00,11.8,-15.8,29.47,NNE,22,7.8,9.2,27,0.00,CLR,FEW,0.00,0.0,WeatherDisplay:10.37,2013-04-07 01:20:00,
2013-04-06 17:25:00,11.8,-15.8,29.47,NNE,22,7.8,9.8,27,0.00,CLR,FEW,0.00,0.0,WeatherDisplay:10.37,2013-04-07 01:25:00,
2013-04-06 17:30:00,11.7,-15.9,29.47,NNW,338,4.5,8.1,27,0.00,CLR,FEW,0.00,0.0,WeatherDisplay:10.37,2013-04-07 01:30:00,
2013-04-06 17:35:00,11.3,-16.3,29.47,NNE,22,4.5,5.8,27,0.00,CLR,FEW,0.00,0.0,WeatherDisplay:10.37,2013-04-07 01:35:00,
2013-04-06 17:40:00,10.9,-16.6,29.47,NNE,22,4.5,4.5,27,0.00,CLR,FEW,0.00,0.0,WeatherDisplay:10.37,2013-04-07 01:40:00,
2013-04-06 17:45:00,10.8,-16.7,29.47,NNE,22,7.6,7.6,27,0.00,CLR,FEW,0.00,0.0,WeatherDisplay:10.37,2013-04-07 01:45:00,
2013-04-06 17:50:00,10.4,-17.0,29.47,North,0,3.8,5.8,27,0.00,CLR,FEW,0.00,0.0,WeatherDisplay:10.37,2013-04-07 01:50:00,
2013-04-06 17:55:00,9.7,-17.7,29.47,North,0,4.7,5.8,27,0.00,CLR,FEW,0.00,0.0,WeatherDisplay:10.37,2013-04-07 01:55:00,
2013-04-06 18:00:00,10.0,-17.4,29.50,NNE,22,6.0,6.9,27,0.00,CLR,FEW,0.00,0.0,WeatherDisplay:10.37,2013-04-07 02:00:00,
2013-04-06 18:05:00,10.6,-16.9,29.50,NNE,22,6.0,7.4,27,0.00,CLR,FEW,0.00,0.0,WeatherDisplay:10.37,2013-04-07 02:05:00,
2013-04-06 18:10:00,11.1,-16.4,29.50,North,0,9.2,9.2,27,0.00,CLR,FEW,0.00,0.0,WeatherDisplay:10.37,2013-04-07 02:10:00,
2013-04-06 18:15:00,11.3,-16.3,29.47,NNE,22,8.1,8.1,27,0.00,CLR,FEW,0.00,0.0,WeatherDisplay:10.37,2013-04-07 02:15:00,
2013-04-06 18:20:00,11.1,-16.4,29.47,NNW,338,9.2,9.2,27,0.00,CLR,FEW,0.00,0.0,WeatherDisplay:10.37,2013-04-07 02:20:00,
2013-04-06 18:25:00,11.1,-16.4,29.47,NNW,338,9.2,9.2,27,0.00,CLR,FEW,0.00,0.0,WeatherDisplay:10.37,2013-04-07 02:25:00,
2013-04-06 18:30:00,11.1,-16.4,29.47,NNW,338,9.2,9.2,27,0.00,CLR,FEW,0.00,0.0,WeatherDisplay:10.37,2013-04-07 02:30:00,
2013-04-06 18:35:00,11.3,-16.3,29.47,NNW,338,9.2,9.2,27,0.00,CLR,FEW,0.00,0.0,WeatherDisplay:10.37,2013-04-07 02:35:00,
2013-04-06 18:40:00,10.8,-16.7,29.47,NNW,338,9.2,9.2,27,0.00,CLR,FEW,0.00,0.0,WeatherDisplay:10.37,2013-04-07 02:40:00,
2013-04-06 18:46:00,10.6,-16.9,29.47,NNW,338,9.2,9.2,27,0.00,CLR,FEW,0.00,0.0,WeatherDisplay:10.37,2013-04-07 02:46:00,
2013-04-06 18:51:00,10.2,-17.2,29.47,NNW,338,9.2,9.2,27,0.00,CLR,FEW,0.00,0.0,WeatherDisplay:10.37,2013-04-07 02:51:00,
2013-04-06 18:56:00,10.0,-17.4,29.47,NNW,338,9.2,9.2,27,0.00,CLR,FEW,0.00,0.0,WeatherDisplay:10.37,2013-04-07 02:56:00,
2013-04-06 19:01:00,9.5,-17.8,29.47,NNW,338,6.0,6.0,27,0.00,CLR,FEW,0.00,0.0,WeatherDisplay:10.37,2013-04-07 03:01:00,
2013-04-06 19:06:00,9.1,-18.1,29.47,ENE,68,6.7,6.7,27,0.00,CLR,FEW,0.00,0.0,WeatherDisplay:10.37,2013-04-07 03:06:00,
2013-04-06 19:12:00,8.4,-18.8,29.47,NNW,338,7.4,7.4,27,0.00,CLR,FEW,0.00,0.0,WeatherDisplay:10.37,2013-04-07 03:12:00,
2013-04-06 19:17:00,8.2,-18.9,29.47,North,0,7.6,7.6,27,0.00,CLR,FEW,0.00,0.0,WeatherDisplay:10.37,2013-04-07 03:17:00,
2013-04-06 19:22:00,7.9,-19.2,29.47,North,0,7.6,7.6,27,0.00,CLR,FEW,0.00,0.0,WeatherDisplay:10.37,2013-04-07 03:22:00,
2013-04-06 19:27:00,7.5,-19.6,29.47,NNE,22,6.4,9.2,27,0.00,CLR,FEW,0.00,0.0,WeatherDisplay:10.37,2013-04-07 03:27:00,
2013-04-06 19:32:00,7.2,-19.9,29.47,NNE,22,7.1,7.1,27,0.00,CLR,FEW,0.00,0.0,WeatherDisplay:10.37,2013-04-07 03:32:00,
2013-04-06 19:37:00,7.0,-20.0,29.47,NNE,22,6.7,6.9,27,0.00,CLR,FEW,0.00,0.0,WeatherDisplay:10.37,2013-04-07 03:37:00,
2013-04-06 19:42:00,6.8,-20.2,29.47,ENE,68,4.9,6.9,27,0.00,CLR,FEW,0.00,0.0,WeatherDisplay:10.37,2013-04-07 03:42:00,
2013-04-06 19:47:00,6.6,-20.3,29.47,ENE,68,4.9,4.9,27,0.00,CLR,FEW,0.00,0.0,WeatherDisplay:10.37,2013-04-07 03:47:00,
2013-04-06 19:52:00,6.4,-20.5,29.47,NNE,22,5.9,5.9,27,0.00,CLR,FEW,0.00,0.0,WeatherDisplay:10.37,2013-04-07 03:52:00,
2013-04-06 19:57:00,6.4,-20.5,29.47,NNE,22,5.9,5.9,27,0.00,CLR,FEW,0.00,0.0,WeatherDisplay:10.37,2013-04-07 03:57:00,
2013-04-06 20:00:00,6.3,-20.7,29.47,North,0,6.7,8.1,27,0.00,CLR,FEW,0.00,0.0,WeatherDisplay:10.37,2013-04-07 04:00:00,
2013-04-06 20:05:00,6.3,-20.7,29.47,North,0,6.7,8.1,27,0.00,CLR,FEW,0.00,0.0,WeatherDisplay:10.37,2013-04-07 04:05:00,
2013-04-06 20:10:00,6.1,-20.8,29.47,NNE,22,3.8,8.1,27,0.00,CLR,FEW,0.00,0.0,WeatherDisplay:10.37,2013-04-07 04:10:00,
2013-04-06 20:15:00,5.9,-21.0,29.47,North,0,3.8,3.8,27,0.00,CLR,FEW,0.00,0.0,WeatherDisplay:10.37,2013-04-07 04:15:00,
2013-04-06 20:20:00,5.5,-21.3,29.47,NNE,22,4.7,4.7,27,0.00,CLR,FEW,0.00,0.0,WeatherDisplay:10.37,2013-04-07 04:20:00,
2013-04-06 20:25:00,5.4,-21.4,29.47,NNE,22,3.1,4.6,27,0.00,CLR,FEW,0.00,0.0,WeatherDisplay:10.37,2013-04-07 04:25:00,
2013-04-06 20:30:00,5.0,-21.8,29.44,NNE,22,3.1,3.5,27,0.00,CLR,FEW,0.00,0.0,WeatherDisplay:10.37,2013-04-07 04:30:00,
2013-04-06 20:36:00,4.8,-21.9,29.44,NNE,22,4.0,4.6,27,0.00,CLR,FEW,0.00,0.0,WeatherDisplay:10.37,2013-04-07 04:36:00,
2013-04-06 20:41:00,4.5,-22.2,29.44,NNE,22,4.3,5.8,27,0.00,CLR,FEW,0.00,0.0,WeatherDisplay:10.37,2013-04-07 04:41:00,
2013-04-06 20:46:00,4.1,-22.6,29.47,NNE,22,4.3,5.8,27,0.00,CLR,FEW,0.00,0.0,WeatherDisplay:10.37,2013-04-07 04:46:00,
2013-04-06 20:51:00,3.9,-22.7,29.47,NNE,22,5.9,5.9,27,0.00,CLR,FEW,0.00,0.0,WeatherDisplay:10.37,2013-04-07 04:51:00,
2013-04-06 20:56:00,3.7,-22.9,29.47,NNE,22,5.9,5.9,27,0.00,CLR,FEW,0.00,0.0,WeatherDisplay:10.37,2013-04-07 04:56:00,
2013-04-06 21:01:00,3.7,-22.9,29.47,NNE,22,5.9,5.9,27,0.00,CLR,FEW,0.00,0.0,WeatherDisplay:10.37,2013-04-07 05:01:00,
2013-04-06 21:06:00,3.6,-23.0,29.47,NNE,22,4.0,5.8,27,0.00,CLR,FEW,0.00,0.0,WeatherDisplay:10.37,2013-04-07 05:06:00,
2013-04-06 21:11:00,3.4,-23.2,29.47,NNE,22,4.0,5.8,27,0.00,CLR,FEW,0.00,0.0,WeatherDisplay:10.37,2013-04-07 05:11:00,
2013-04-06 21:16:00,3.2,-23.3,29.47,NNE,22,4.0,5.8,27,0.00,CLR,FEW,0.00,0.0,WeatherDisplay:10.37,2013-04-07 05:16:00,
2013-04-06 21:21:00,3.2,-23.3,29.47,NNW,338,6.0,6.0,27,0.00,CLR,FEW,0.00,0.0,WeatherDisplay:10.37,2013-04-07 05:21:00,
2013-04-06 21:26:00,2.8,-23.7,29.47,NNW,338,6.0,6.0,27,0.00,CLR,FEW,0.00,0.0,WeatherDisplay:10.37,2013-04-07 05:26:00,
2013-04-06 21:31:00,2.8,-23.7,29.47,NNW,338,6.0,6.0,27,0.00,CLR,FEW,0.00,0.0,WeatherDisplay:10.37,2013-04-07 05:31:00,
2013-04-06 21:36:00,2.7,-23.8,29.47,NNW,338,3.3,3.5,27,0.00,CLR,FEW,0.00,0.0,WeatherDisplay:10.37,2013-04-07 05:36:00,
2013-04-06 21:42:00,2.5,-24.0,29.47,NNW,338,3.3,3.8,27,0.00,CLR,FEW,0.00,0.0,WeatherDisplay:10.37,2013-04-07 05:42:00,
2013-04-06 21:47:00,2.5,-24.0,29.47,North,0,4.5,4.5,27,0.00,CLR,FEW,0.00,0.0,WeatherDisplay:10.37,2013-04-07 05:47:00,
2013-04-06 21:52:00,2.5,-24.0,29.47,NNE,22,5.9,5.9,27,0.00,CLR,FEW,0.00,0.0,WeatherDisplay:10.37,2013-04-07 05:52:00,
2013-04-06 21:57:00,2.3,-24.1,29.47,NNE,22,5.9,5.9,27,0.00,CLR,FEW,0.00,0.0,WeatherDisplay:10.37,2013-04-07 05:57:00,
2013-04-06 22:02:00,2.1,-24.3,29.47,NNE,22,5.9,5.9,27,0.00,CLR,FEW,0.00,0.0,WeatherDisplay:10.37,2013-04-07 06:02:00,
2013-04-06 22:07:00,1.9,-24.4,29.47,NNE,22,5.9,5.9,27,0.00,CLR,FEW,0.00,0.0,WeatherDisplay:10.37,2013-04-07 06:07:00,
2013-04-06 22:12:00,1.9,-24.4,29.47,NNE,22,5.9,5.9,27,0.00,CLR,FEW,0.00,0.0,WeatherDisplay:10.37,2013-04-07 06:12:00,
2013-04-06 22:17:00,1.8,-24.6,29.47,NNE,22,5.9,5.9,27,0.00,CLR,FEW,0.00,0.0,WeatherDisplay:10.37,2013-04-07 06:17:00,
2013-04-06 22:22:00,1.8,-24.6,29.47,NNE,22,5.9,5.9,27,0.00,CLR,FEW,0.00,0.0,WeatherDisplay:10.37,2013-04-07 06:22:00,
2013-04-06 22:27:00,1.8,-24.6,29.47,NNE,22,5.9,5.9,27,0.00,CLR,FEW,0.00,0.0,WeatherDisplay:10.37,2013-04-07 06:27:00,
2013-04-06 22:32:00,1.6,-24.8,29.47,NNE,22,5.9,5.9,27,0.00,CLR,FEW,0.00,0.0,WeatherDisplay:10.37,2013-04-07 06:32:00,
2013-04-06 22:37:00,1.6,-24.8,29.47,NNE,22,5.9,5.9,27,0.00,CLR,FEW,0.00,0.0,WeatherDisplay:10.37,2013-04-07 06:37:00,
2013-04-06 22:42:00,1.6,-24.8,29.47,NNE,22,5.9,5.9,27,0.00,CLR,FEW,0.00,0.0,WeatherDisplay:10.37,2013-04-07 06:42:00,
2013-04-06 22:47:00,1.6,-24.8,29.47,NNE,22,5.9,5.9,27,0.00,CLR,FEW,0.00,0.0,WeatherDisplay:10.37,2013-04-07 06:47:00,
2013-04-06 22:52:00,1.6,-24.8,29.47,NNE,22,5.9,5.9,27,0.00,CLR,FEW,0.00,0.0,WeatherDisplay:10.37,2013-04-07 06:52:00,
2013-04-06 22:58:00,1.4,-24.9,29.47,NNE,22,4.0,4.0,27,0.00,CLR,FEW,0.00,0.0,WeatherDisplay:10.37,2013-04-07 06:58:00,
2013-04-06 23:03:00,1.4,-24.9,29.50,NNE,22,4.0,4.0,27,0.00,CLR,FEW,0.00,0.0,WeatherDisplay:10.37,2013-04-07 07:03:00,
2013-04-06 23:08:00,1.4,-24.9,29.50,NNE,22,4.0,4.0,27,0.00,CLR,FEW,0.00,0.0,WeatherDisplay:10.37,2013-04-07 07:08:00,
2013-04-06 23:13:00,1.2,-25.1,29.50,NNE,22,4.0,4.0,27,0.00,CLR,FEW,0.00,0.0,WeatherDisplay:10.37,2013-04-07 07:13:00,
2013-04-06 23:18:00,1.2,-25.1,29.50,NNE,22,4.0,4.0,27,0.00,CLR,FEW,0.00,0.0,WeatherDisplay:10.37,2013-04-07 07:18:00,
2013-04-06 23:23:00,1.2,-25.1,29.50,NNE,22,4.0,4.0,27,0.00,CLR,FEW,0.00,0.0,WeatherDisplay:10.37,2013-04-07 07:23:00,
2013-04-06 23:28:00,1.2,-25.1,29.50,NNE,22,4.0,4.0,27,0.00,CLR,FEW,0.00,0.0,WeatherDisplay:10.37,2013-04-07 07:28:00,
2013-04-06 23:33:00,1.2,-25.1,29.50,NNE,22,4.0,4.0,27,0.00,CLR,FEW,0.00,0.0,WeatherDisplay:10.37,2013-04-07 07:33:00,
2013-04-06 23:38:00,1.2,-25.1,29.50,NNE,22,4.0,4.0,27,0.00,CLR,FEW,0.00,0.0,WeatherDisplay:10.37,2013-04-07 07:38:00,
2013-04-06 23:43:00,1.2,-25.1,29.50,NNE,22,4.0,4.0,27,0.00,CLR,FEW,0.00,0.0,WeatherDisplay:10.37,2013-04-07 07:43:00,
2013-04-06 23:48:00,1.2,-25.1,29.50,NNE,22,4.0,4.0,27,0.00,CLR,FEW,0.00,0.0,WeatherDisplay:10.37,2013-04-07 07:48:00,
2013-04-06 23:53:00,1.0,-25.2,29.50,NNE,22,4.0,4.0,27,0.00,CLR,FEW,0.00,0.0,WeatherDisplay:10.37,2013-04-07 07:53:00,
2013-04-06 23:58:00,1.0,-25.2,29.50,NNE,22,4.0,4.0,27,0.00,CLR,FEW,0.00,0.0,WeatherDisplay:10.37,2013-04-07 07:58:00,